Voltar ao catálogo

STARLINK-35261

AtivoComunicaçõesSSO
NORAD 65595·PAYLOAD·🇺🇸 United States

Lançado Sep 13, 2025 de Cape Canaveral Space Force Station

Loading…

Próximas Passagens (próximas 24 horas)

TLE

AtualizadoSource: CelesTrak SupGP

Época: Sep 15, 2026, 02:39 UTC

1 65595C 25207D   26258.11090278  .02066200  00000+0  12261+0 0  2581
2 65595  97.2846 320.8326 0001258  84.9633 127.2669 15.10386975    10

Acompanhe STARLINK-35261 em tempo real com AllMySat

Download on the App Store